{"data":{"norad_id":51846,"epoch":"2026-05-24T23:11:46.184928Z","epoch_age_seconds":78245,"freshness":"FRESH","line1":"1 51846U 22019Y   26144.96650677  .00239207  00000+0  91057-3 0  9998","line2":"2 51846  97.3634 239.8544 0005166 216.8287 143.2630 15.86946634236243","mean_motion":15.86946634,"eccentricity":0.0005166,"inclination_deg":97.3634,"raan_deg":239.8544,"arg_perigee_deg":216.8287,"mean_anomaly_deg":143.263,"bstar":0.00091057,"rev_number":23624,"period_min":90.740291396591,"perigee_km":307.3935623476,"apogee_km":314.30462277843,"semimajor_km":6688.986092563,"source":"CELESTRAK","updated_at":"2026-05-25T13:37:57.537360Z"}}